Content
SEND FEEDBACK

Daily
Averages
Monthly
Summary
Canada

SCUDDER, ONTARIO


Home > North America > Canada > Ontario
Elevation: 574 feet     Latitude: 41 45N     Longitude: 082 40W

WEATHER
 
SELECT A DAY
Number of Records: 123,078;   Date Range: 12/10/00 - 9/18/14
 
SHARE

PRINT THIS DATA

[ ← Previous Day ]
WEATHER ALMANAC - JANUARY 18, 2013
[ Next Day → ]
[ °C ]   °F
Weather ElementAverageHighLow
Temperature26.1 °F34.3 °F (11:00 pm)18.5 °F (2:00 am)
Dewpoint15.4 °F23.7 °F (11:00 pm)7 °F (1:00 am)
Humidity62 %71 % (11:00 am)47 % (1:00 am)
Barometer30.32 in30.49 in (10:00 am)30.06 in (11:00 pm)
Wind Speed9.5 mph20.7 mph (9:00 pm)
Wind Gust29.9 mph (9:00 pm)
Weather ElementAverage
Wind DirectionWSW (246.9 °)

Weather ElementTotal
Precipitation---
Heating Degree Days38.6 (Base 65)
Averaged from 26 records on January 18, 2013
WEATHER CONDITIONS BREAKOUT
WIND DIRECTION BREAKOUT
WEATHER BY HOUR - JANUARY 18, 2013
[ °C ]   °F
Local TimeTemperatureDewpointHumidityBarometerVisibilityWind DirectionWind SpeedGust SpeedPrecipitationEventsConditions
1:00 AM19.0 °F7.0 °F47 %30.36 inNW (320°)3.5 mph
1:00 AM18.7 °F7.3 °F61 %30.36 inNW (320°)3.5 mph
2:00 AM18.5 °F7.3 °F62 %30.39 inNW (320°)2.3 mph
3:00 AM18.7 °F9.7 °F68 %30.42 inWest (270°)1.2 mph
4:00 AM19.6 °F9.0 °F63 %30.43 inNW (320°)2.3 mph
5:00 AM20.7 °F8.2 °F59 %30.43 inWNW (300°)4.6 mph
6:00 AM19.4 °F8.4 °F62 %30.45 inNNW (330°)2.3 mph
7:00 AM19.0 °F9.0 °F53 %30.46 inNNW (340°)1.2 mph
7:00 AM19.4 °F9.3 °F65 %30.46 inNNW (340°)1.2 mph
8:00 AM19.9 °F9.7 °F64 %30.47 inNNW (340°)1.2 mph
9:00 AM21.7 °F10.0 °F61 %30.47 inENE (60°)1.2 mph
10:00 AM24.4 °F13.3 °F63 %30.49 inSouth (190°)5.8 mph
11:00 AM26.4 °F18.1 °F71 %30.45 inSSW (200°)11.5 mph17.3 mph
12:00 PM27.7 °F18.3 °F68 %30.41 inSSW (200°)12.7 mph19.6 mph
1:00 PM29.0 °F19.0 °F53 %30.37 inSW (230°)13.8 mph
1:00 PM28.9 °F18.7 °F66 %30.37 inSW (230°)13.8 mph21.9 mph
2:00 PM30.0 °F18.9 °F63 %30.32 inSSW (210°)11.5 mph19.6 mph
4:00 PM32.0 °F19.0 °F59 %30.25 inSSW (210°)16.1 mph25.3 mph
5:00 PM31.3 °F21.6 °F67 %30.21 inSSW (210°)15.0 mph24.2 mph
6:00 PM32.9 °F22.6 °F66 %30.17 inSSW (200°)16.1 mph23.0 mph
7:00 PM33.4 °F22.1 °F63 %30.15 inSSW (200°)18.4 mph25.3 mph
7:00 PM33.0 °F22.0 °F52 %30.15 inSSW (200°)18.4 mph
8:00 PM33.3 °F22.5 °F65 %30.12 inSSW (210°)18.4 mph27.6 mph
9:00 PM34.0 °F22.1 °F62 %30.08 inSSW (210°)20.7 mph29.9 mph
10:00 PM34.0 °F23.2 °F65 %30.08 inSW (230°)16.1 mph21.9 mph
11:00 PM34.3 °F23.7 °F65 %30.06 inSW (230°)15.0 mph21.9 mph
Hourly data recorded from CXHA, located miles away from Scudder, Ontario







STORIES FROM OUR PARTNERS